Find Jilin-1 GaoFen 03D 31 xing

NORAD ID: 52448 Int'l Des: 2022-048 Owner: CGSTL Country: CN Constellation: jilin-1 operational
LEOCIRCULARRETROGRADE

リアルタイム位置

3D地球を読み込み中...

Jilin-1 GaoFen 03D 31 xingについて

説明を読み込み中...

次回通過

Passes for default location (London). Set your location on the main map for personalized predictions.

高度履歴

Loading altitude history...

軌道要素

1 52448U 22048F 26106.24268590 .00053713 00000-0 49626-3 0 9999
2 52448 97.5633 216.1499 0002071 247.9986 112.1054 15.67412623219840
Epoch: Apr 16, 2026 • Age: 9 hours

現在のステータス

高度 383.9 km
速度 7.68 km/s
衛星直下点 -48.92°S, 33.83°W
打ち上げ日 May 5, 2022
運用期間 3.9 years
タイプ earth observation

技術仕様

分類 Payload
質量 42.00 kg
乾燥質量 42.00 kg
総質量 42.00 kg
長さ 1.50 m
直径 1.00 m
スパン 1.50 m
形状 Box
製造者 CGSTL
バスタイプ JL-1
フェーズステータス In Orbit
所有者/国 CGSTL/CN

Most Searched